Estación Meteorológica Peña el Pijo (Robertgarden) [ 07/11/20 03:21:42 CEST ]

Fecha Hora Presion(HPa) Temp (°C) Humedad % Rocio (°C) Viento ( m/s) Direccion Lluvia 1Hora(mm) Lluvia 24H(mm) LLuvia Total(mm)
2019-Dec-29 01:01:52 1018.600 -1.7 75 -5.6         39.88
2019-Dec-29 02:08:09 1018.300 -1.7 74 -5.7         39.88
2019-Dec-29 03:01:47 1017.900 -1.9 74 -5.9         39.88
2019-Dec-29 04:02:13 1018.300 -2.2 73 -6.4         39.88
2019-Dec-29 05:01:51 1018.200 -3.6 74 -7.6         39.88
2019-Dec-29 06:01:45 1018.200 -3.9 75 -7.7         39.88
2019-Dec-29 07:01:44 1018.500 -3.5 76 -7.1         39.88
2019-Dec-29 08:01:48 1018.600 -4.7 77 -8.1         39.88
2019-Dec-29 09:01:41 1018.600 -4.9 77 -8.3         39.88
2019-Dec-29 10:08:44 1019.000 - - - - N     39.88
2019-Dec-29 11:09:03 1019.400 - - - - N     39.88
2019-Dec-29 12:09:11 1018.400 - - - - N     39.88
2019-Dec-29 13:09:22 1017.600 - - - - N     39.88
2019-Dec-29 14:09:23 1016.800 - - - - N     39.88
2019-Dec-29 15:09:18 1016.600 - - - - N     39.88
2019-Dec-29 16:09:38 1016.400 - - - - N     39.88
2019-Dec-29 17:09:09 1016.500 - - - - N     39.88
2019-Dec-29 18:09:06 1016.900 - - - - N     39.88
2019-Dec-29 19:09:43 1017.200 - - - - N     39.88
2019-Dec-29 20:08:53 1017.500 - - - - N     39.88
2019-Dec-29 21:09:07 1017.800 - - - - N     39.88
2019-Dec-29 22:09:03 1017.600 - - - - N     39.88
2019-Dec-29 23:09:22 1017.900 - - - - N     39.88

Temperatura Máxima:    Temperatura Mínima:-4°
Presión Máxima:1019.400 Hpa    Presión Mínima:1016.400 Hpa


Volver